Okean 3 - Orbit

View from above orbital plane
View from above orbital plane
View from above satellite
View from above satellite

Ground track
Ground track

The orbit data is extracted from the following two-line orbital elements,

1 21397U 91039A   13168.14638726  .00000634  00000-0  64597-4 0  9808
2 21397 082.5246 083.2768 0020675 075.0698 285.2808 14.88922439192050
Epoch (UTC): 17 June 2013 03:30:47
Eccentricity: 0.0020675
inclination: 82.5246°
perigee height: 587 km
apogee height: 616 km
right ascension of ascending node: 83.2768°
argument of perigee: 75.0698°
revolutions per day: 14.88922439
mean anomaly at epoch: 285.2808°
orbit number at epoch: 19205

The dashed part of the orbit path shows where the satellite is in the earth's shadow,  

Developed and maintained by Chris Peat, Heavens-Above GmbH. Please read the updated FAQ before sending e-mail. Imprint. DLR